M I D A S
Marine Information and Data Acquisition System
Tripno 2133 of the Zeeleeuw from 2011-02-24 08:26:42 to 2011-02-24 17:00:55
Back to CruiseResearch ActivitiesStationsMapUnderway DataData graphs

EquipmentUnitsComments
TimeDGPSUTC
LatitudeDGPSDM.mWGS84
LongitudeDGPSDM.mWGS84
SpeedMeteo Stationm/sRelative wind speed
DirectionMeteo StationdegRelative wind direction
TemperatureMeteo Stationdeg CelciusAir temperature
PressureMeteo StationPaAtmospheric pressure
HumidityMeteo Station%Relative humidity
Missing or incorrect values are displayed as -999
Metereological data collected by the RV Zeeleeuw from 2011-02-24 06:56:12 to 2011-02-24 17:01:52
Time Latitude Longitude Speed Direction Temperature Pressure Humidity
2011-02-24 06:57 51°13.664 2°55.96 2.8 45 8.2 101920 60
2011-02-24 06:58 51°13.664 2°55.96 4.3 25 8.2 101930 59
2011-02-24 06:59 51°13.662 2°55.961 3.3 23 8.2 101930 59
2011-02-24 07:00 51°13.662 2°55.961 4 25 8.2 101930 60
2011-02-24 07:01 51°13.662 2°55.962 4.7 24 8.2 101940 59
2011-02-24 07:02 51°13.662 2°55.961 2.3 22 8.2 101940 61
2011-02-24 07:03 51°13.663 2°55.961 2.1 37 8.2 101940 59
2011-02-24 07:04 51°13.663 2°55.961 1.3 19 8.2 101940 59
2011-02-24 07:05 51°13.663 2°55.961 4.4 43 8.1 101940 61
2011-02-24 07:06 51°13.663 2°55.961 3 37 8.1 101940 60
2011-02-24 07:07 51°13.662 2°55.961 3.2 42 8.1 101940 59
2011-02-24 07:08 51°13.663 2°55.961 4.2 24 8.1 101940 58
2011-02-24 07:09 51°13.662 2°55.961 1.8 44 8.1 101940 60
2011-02-24 07:10 51°13.662 2°55.961 0.4 28 8.1 101940 59
2011-02-24 07:11 51°13.662 2°55.962 1.7 22 8.1 101940 59
2011-02-24 07:12 51°13.662 2°55.962 2.8 42 8 101950 59
2011-02-24 07:13 51°13.662 2°55.961 3.7 44 8.1 101940 60
2011-02-24 07:14 51°13.663 2°55.961 2.7 28 8.1 101950 58
2011-02-24 07:15 51°13.662 2°55.962 1.6 22 8.1 101950 61
2011-02-24 07:16 51°13.662 2°55.962 3.5 40 8.1 101950 58
2011-02-24 07:17 51°13.661 2°55.962 0.1 44 8.1 101950 59
2011-02-24 07:18 51°13.661 2°55.961 0.2 42 8.1 101950 59
2011-02-24 07:19 51°13.661 2°55.962 3.5 41 8.1 101950 60
2011-02-24 07:20 51°13.662 2°55.961 1.4 25 8.2 101950 59
2011-02-24 07:21 51°13.662 2°55.961 2.4 38 8.2 101950 61
2011-02-24 07:22 51°13.662 2°55.961 4.8 36 8.2 101960 59
2011-02-24 07:23 51°13.663 2°55.961 3.3 40 8.2 101960 60
2011-02-24 07:24 51°13.663 2°55.96 4.4 42 8.3 101950 60
2011-02-24 07:25 51°13.663 2°55.96 3.7 41 8.3 101960 60
2011-02-24 07:26 51°13.663 2°55.959 3.1 23 8.3 101960 59
2011-02-24 07:27 51°13.663 2°55.959 -999 23 8.3 101960 59
2011-02-24 07:28 51°13.663 2°55.96 0.9 40 8.2 101960 59
2011-02-24 07:29 51°13.663 2°55.96 3.3 24 8.2 101960 59
2011-02-24 07:30 51°13.662 2°55.959 3 43 8.3 101960 59
2011-02-24 07:31 51°13.662 2°55.959 0.9 20 8.3 101960 60
2011-02-24 07:32 51°13.662 2°55.959 0.2 22 8.4 101960 59
2011-02-24 07:33 51°13.662 2°55.96 3.9 19 8.4 101960 58
2011-02-24 07:34 51°13.662 2°55.96 1.5 26 8.4 101960 60
2011-02-24 07:35 51°13.662 2°55.96 2.8 23 8.4 101960 58
2011-02-24 07:36 51°13.662 2°55.961 3.6 45 8.5 101960 58
2011-02-24 07:37 51°13.662 2°55.96 4.4 28 8.5 101960 60
2011-02-24 07:38 51°13.662 2°55.961 0.1 22 8.5 101960 60
2011-02-24 07:39 51°13.662 2°55.96 0.1 21 8.5 101970 59
2011-02-24 07:40 51°13.662 2°55.961 0.3 23 8.5 101970 58
2011-02-24 07:41 51°13.662 2°55.961 2 20 8.6 101970 59
2011-02-24 07:42 51°13.662 2°55.961 4.3 26 8.7 101980 59
2011-02-24 07:43 51°13.662 2°55.961 1.5 26 8.7 101980 58
2011-02-24 07:44 51°13.662 2°55.961 2.7 38 8.6 101990 59
2011-02-24 07:45 51°13.663 2°55.961 4.4 24 8.6 101990 59
2011-02-24 07:46 51°13.663 2°55.961 1.9 39 8.6 101990 59
2011-02-24 07:47 51°13.663 2°55.961 3.7 42 8.6 101990 59
2011-02-24 07:48 51°13.662 2°55.961 3.9 22 8.6 101990 58
2011-02-24 07:49 51°13.662 2°55.961 2.3 26 8.6 101990 60
2011-02-24 07:50 51°13.662 2°55.961 1.7 27 8.6 102000 59
2011-02-24 07:51 51°13.661 2°55.961 0.2 25 8.6 102000 59
2011-02-24 07:52 51°13.662 2°55.961 3.7 27 8.5 102000 59
2011-02-24 07:53 51°13.661 2°55.961 2.4 28 8.5 102010 59
2011-02-24 07:54 51°13.661 2°55.962 2.3 24 8.5 102010 59
2011-02-24 07:55 51°13.661 2°55.961 1 22 8.5 102010 58
2011-02-24 07:56 51°13.662 2°55.961 3.6 26 8.5 102010 59
2011-02-24 07:57 51°13.662 2°55.961 1.1 19 8.4 -999 40
2011-02-24 07:58 51°13.662 2°55.961 2.7 19 8.4 102010 59
2011-02-24 07:59 51°13.662 2°55.962 0.4 44 8.4 102020 59
2011-02-24 08:00 51°13.662 2°55.961 0.8 21 8.4 102020 58
2011-02-24 08:01 51°13.662 2°55.961 3.1 22 8.4 102020 58
2011-02-24 08:02 51°13.662 2°55.96 2.9 37 8.4 102020 58
2011-02-24 08:03 51°13.662 2°55.961 4.6 26 8.4 102030 57
2011-02-24 08:04 51°13.662 2°55.96 3.2 19 8.4 102030 58
2011-02-24 08:05 51°13.663 2°55.961 1.7 25 8.4 102030 59
2011-02-24 08:06 51°13.663 2°55.96 1.2 20 8.4 102040 59
2011-02-24 08:07 51°13.663 2°55.96 0.1 23 8.4 102040 57
2011-02-24 08:08 51°13.664 2°55.961 2.5 28 8.3 102040 58
2011-02-24 08:09 51°13.664 2°55.961 0.9 26 8.3 102040 58
2011-02-24 08:10 51°13.664 2°55.961 3.7 21 8.3 102040 58
2011-02-24 08:11 51°13.664 2°55.96 0.2 21 8.3 102040 58
2011-02-24 08:12 51°13.664 2°55.96 3.7 38 8.3 102040 58
2011-02-24 08:13 51°13.665 2°55.96 4.8 27 8.3 102040 59
2011-02-24 08:14 51°13.665 2°55.961 4.4 44 8.2 102030 58
2011-02-24 08:15 51°13.664 2°55.961 3.8 44 8.2 102030 58
2011-02-24 08:16 51°13.664 2°55.962 3.8 43 8.2 102030 59
2011-02-24 08:17 51°13.664 2°55.961 5.1 42 8.2 102030 58
2011-02-24 08:18 51°13.664 2°55.962 1.8 27 8.2 102030 58
2011-02-24 08:19 51°13.664 2°55.962 2.6 22 8.2 102030 58
2011-02-24 08:20 51°13.664 2°55.961 4.2 25 8.2 102040 59
2011-02-24 08:21 51°13.664 2°55.961 0.2 43 8.2 102040 58
2011-02-24 08:22 51°13.663 2°55.962 3.5 22 8.2 102040 58
2011-02-24 08:23 51°13.663 2°55.962 3.3 44 8.2 102040 59
2011-02-24 08:24 51°13.663 2°55.962 1.3 19 8.2 102040 58
2011-02-24 08:25 51°13.662 2°55.96 0.2 25 8.2 102040 58
2011-02-24 08:26 51°13.662 2°55.96 3.1 22 8.3 102040 59
2011-02-24 08:27 51°13.662 2°55.96 2.8 22 8.3 102040 58
2011-02-24 08:28 51°13.661 2°55.961 0.2 23 8.3 102050 58
2011-02-24 08:29 51°13.662 2°55.961 0.1 24 8.4 102050 59
2011-02-24 08:30 51°13.66 2°55.96 0.4 24 8.5 102050 59
2011-02-24 08:31 51°13.668 2°55.941 3.9 21 8.6 102060 59
2011-02-24 08:32 51°13.694 2°55.856 0.1 23 8.9 102060 58
2011-02-24 08:33 51°13.707 2°55.767 2.8 20 8.8 102060 58
2011-02-24 08:34 51°13.709 2°55.734 0.5 263 8.6 102060 58
2011-02-24 08:35 51°13.705 2°55.711 0.1 22 8.6 102060 58
2011-02-24 08:36 51°13.795 2°55.654 6.4 316 8.5 102060 58
2011-02-24 08:37 51°13.943 2°55.54 6.5 24 8.5 102050 59
2011-02-24 08:38 51°14.105 2°55.429 8.9 20 8.5 102050 58
2011-02-24 08:39 51°14.271 2°55.286 7 26 8.4 102050 57
2011-02-24 08:40 51°14.43 2°55.128 6.1 23 8.1 102050 58
2011-02-24 08:41 51°14.589 2°54.956 6.5 22 7.8 102050 56
2011-02-24 08:42 51°14.761 2°54.777 8.3 315 7.6 102050 56
2011-02-24 08:43 51°14.949 2°54.602 7.9 317 7.5 102040 56
2011-02-24 08:44 51°15.119 2°54.376 8.4 321 7.5 102040 56
2011-02-24 08:45 51°15.257 2°54.107 9.9 324 7.5 102050 57
2011-02-24 08:46 51°15.402 2°53.843 9.5 322 7.5 102040 57
2011-02-24 08:47 51°15.546 2°53.575 11 321 7.6 102040 58
2011-02-24 08:48 51°15.71 2°53.344 8.9 317 7.6 102030 58
2011-02-24 08:49 51°15.908 2°53.203 9.1 316 7.6 102040 58
2011-02-24 08:50 51°16.11 2°53.071 8.8 316 7.6 102040 58
2011-02-24 08:51 51°16.312 2°52.935 10.5 316 7.6 102030 58
2011-02-24 08:52 51°16.513 2°52.799 9 316 7.6 102040 58
2011-02-24 08:53 51°16.713 2°52.662 9 316 7.6 102040 57
2011-02-24 08:54 51°16.914 2°52.529 9.2 315 7.6 102040 58
2011-02-24 08:55 51°17.114 2°52.391 10.3 18 7.6 102050 58
2011-02-24 08:56 51°17.317 2°52.254 9.2 20 7.6 102050 58
2011-02-24 08:57 51°17.516 2°52.122 9.3 28 7.7 102040 58
2011-02-24 08:58 51°17.721 2°51.982 9.5 315 7.7 102050 58
2011-02-24 08:59 51°17.921 2°51.842 9.1 316 7.7 102050 58
2011-02-24 09:00 51°18.12 2°51.703 8.6 316 7.7 102050 58
2011-02-24 09:01 51°18.324 2°51.561 8.7 317 7.6 102050 57
2011-02-24 09:02 51°18.527 2°51.418 8.5 316 7.6 102050 58
2011-02-24 09:03 51°18.729 2°51.276 9.3 19 7.6 102050 57
2011-02-24 09:04 51°18.931 2°51.133 9.2 26 7.5 102050 57
2011-02-24 09:05 51°19.132 2°50.988 8.4 26 7.6 102050 57
2011-02-24 09:06 51°19.335 2°50.844 8.5 316 7.5 102060 57
2011-02-24 09:07 51°19.538 2°50.7 8.3 316 7.5 102060 58
2011-02-24 09:08 51°19.742 2°50.553 8.9 316 7.4 102060 58
2011-02-24 09:09 51°19.94 2°50.372 9.3 317 7.4 102050 57
2011-02-24 09:10 51°20.112 2°50.139 10 320 7.4 102060 57
2011-02-24 09:11 51°20.277 2°49.895 9.6 318 7.4 102060 57
2011-02-24 09:12 51°20.444 2°49.657 8.7 319 7.5 102060 58
2011-02-24 09:13 51°20.614 2°49.429 9.6 318 7.5 102060 57
2011-02-24 09:14 51°20.786 2°49.2 8.5 320 7.4 102070 58
2011-02-24 09:15 51°20.959 2°48.972 9.3 320 7.4 102070 57
2011-02-24 09:16 51°21.134 2°48.744 9 320 7.4 102070 58
2011-02-24 09:17 51°21.309 2°48.519 8.5 320 7.5 102070 57
2011-02-24 09:18 51°21.487 2°48.302 7.5 317 7.6 102060 58
2011-02-24 09:19 51°21.694 2°48.168 7.5 22 7.5 102070 57
2011-02-24 09:20 51°21.909 2°48.098 7.7 25 7.6 102070 57
2011-02-24 09:21 51°22.126 2°48.035 7.1 20 7.6 102070 58
2011-02-24 09:22 51°22.342 2°47.965 7.1 21 7.5 102070 58
2011-02-24 09:23 51°22.557 2°47.897 6.4 24 7.5 102080 57
2011-02-24 09:24 51°22.775 2°47.826 7.6 316 7.5 102070 57
2011-02-24 09:25 51°22.992 2°47.756 7.1 22 7.6 102080 58
2011-02-24 09:26 51°23.21 2°47.682 7.7 317 7.6 102080 58
2011-02-24 09:27 51°23.427 2°47.608 7.2 317 7.7 102070 58
2011-02-24 09:28 51°23.644 2°47.538 6.3 316 7.6 102090 58
2011-02-24 09:29 51°23.861 2°47.468 8.2 25 7.6 102080 58
2011-02-24 09:30 51°24.075 2°47.398 8.3 23 7.6 102080 57
2011-02-24 09:31 51°24.289 2°47.329 8.2 319 7.7 102080 57
2011-02-24 09:32 51°24.502 2°47.26 8.5 317 7.7 102080 58
2011-02-24 09:33 51°24.715 2°47.19 7.1 23 7.7 102080 57
2011-02-24 09:34 51°24.929 2°47.117 8.2 22 7.8 102080 58
2011-02-24 09:35 51°25.143 2°47.046 8.4 23 7.8 102080 58
2011-02-24 09:36 51°25.359 2°46.974 8.2 315 7.8 102080 58
2011-02-24 09:37 51°25.576 2°46.898 8.9 21 7.8 102080 57
2011-02-24 09:38 51°25.795 2°46.829 6.8 315 7.8 102080 57
2011-02-24 09:39 51°26.016 2°46.763 6.9 316 7.9 102080 58
2011-02-24 09:40 51°26.233 2°46.696 8.4 315 7.8 102080 58
2011-02-24 09:41 51°26.45 2°46.618 8.8 317 7.8 102080 58
2011-02-24 09:42 51°26.657 2°46.494 8.7 316 7.8 102090 57
2011-02-24 09:43 51°26.863 2°46.368 9.2 316 7.8 102090 58
2011-02-24 09:44 51°27.07 2°46.245 8.2 316 7.8 102090 58
2011-02-24 09:45 51°27.277 2°46.122 7.6 315 7.8 102100 57
2011-02-24 09:46 51°27.483 2°45.998 7.7 316 7.8 102090 56
2011-02-24 09:47 51°27.689 2°45.875 7.9 316 7.8 102100 58
2011-02-24 09:48 51°27.896 2°45.75 9.8 316 7.8 102100 58
2011-02-24 09:49 51°28.104 2°45.631 8.7 25 7.8 102100 58
2011-02-24 09:50 51°28.31 2°45.507 9.1 22 7.7 102100 58
2011-02-24 09:51 51°28.516 2°45.388 10.9 20 7.8 102100 58
2011-02-24 09:52 51°28.721 2°45.265 10.1 315 7.8 102110 57
2011-02-24 09:53 51°28.926 2°45.142 8.2 23 7.8 102100 57
2011-02-24 09:54 51°29.132 2°45.02 9.7 315 7.8 102100 58
2011-02-24 09:55 51°29.337 2°44.904 8.2 21 7.8 102110 57
2011-02-24 09:56 51°29.543 2°44.786 9.1 24 7.9 102100 57
2011-02-24 09:57 51°29.748 2°44.669 8.7 23 7.9 102100 57
2011-02-24 09:58 51°29.953 2°44.546 8.7 25 7.9 102100 58
2011-02-24 09:59 51°30.157 2°44.428 9.3 19 7.9 102100 57
2011-02-24 10:00 51°30.36 2°44.309 9.2 22 7.8 102100 56
2011-02-24 10:01 51°30.566 2°44.189 9 26 7.8 102110 57
2011-02-24 10:02 51°30.771 2°44.068 8.2 24 7.8 102110 57
2011-02-24 10:03 51°30.921 2°43.97 6.8 21 7.8 102110 58
2011-02-24 10:04 51°31.016 2°43.924 4.5 246 7.8 102120 56
2011-02-24 10:05 51°31.105 2°43.941 4.5 246 7.8 102130 58
2011-02-24 10:06 51°31.208 2°43.979 3.6 24 7.8 102130 58
2011-02-24 10:07 51°31.316 2°44.017 5 247 7.8 102120 56
2011-02-24 10:08 51°31.423 2°44.055 5 245 7.8 102130 56
2011-02-24 10:09 51°31.529 2°44.095 4.4 247 7.8 102120 58
2011-02-24 10:10 51°31.63 2°44.132 4.4 247 7.8 102120 56
2011-02-24 10:11 51°31.729 2°44.168 4.4 248 7.9 102130 58
2011-02-24 10:12 51°31.827 2°44.205 4.5 248 7.8 102120 58
2011-02-24 10:13 51°31.922 2°44.253 3.8 251 7.9 102130 58
2011-02-24 10:14 51°32.015 2°44.308 4.7 249 7.9 102120 57
2011-02-24 10:15 51°32.108 2°44.359 3.9 250 7.9 102120 58
2011-02-24 10:16 51°32.209 2°44.414 3.8 18 7.9 102130 57
2011-02-24 10:17 51°32.318 2°44.476 4.5 21 7.9 102120 56
2011-02-24 10:18 51°32.428 2°44.539 4.4 25 7.9 102130 58
2011-02-24 10:19 51°32.538 2°44.604 4.8 18 7.9 102130 56
2011-02-24 10:20 51°32.649 2°44.667 4.9 244 7.9 102130 56
2011-02-24 10:21 51°32.759 2°44.732 4 245 7.9 102130 57
2011-02-24 10:22 51°32.869 2°44.795 3.8 245 7.9 102130 57
2011-02-24 10:23 51°32.979 2°44.859 4.3 21 7.8 102130 58
2011-02-24 10:24 51°33.088 2°44.923 4.3 23 7.8 102130 56
2011-02-24 10:25 51°33.198 2°44.987 4.6 23 7.8 102130 56
2011-02-24 10:26 51°33.306 2°45.051 4.1 246 7.8 102140 58
2011-02-24 10:27 51°33.415 2°45.115 4.6 247 7.8 102140 57
2011-02-24 10:28 51°33.521 2°45.187 3.8 22 7.9 102140 56
2011-02-24 10:29 51°33.624 2°45.27 3.4 247 7.9 102150 56
2011-02-24 10:30 51°33.727 2°45.351 2.9 248 7.8 102150 56
2011-02-24 10:31 51°33.829 2°45.432 3 247 7.9 102150 56
2011-02-24 10:32 51°33.931 2°45.515 2.2 249 7.9 102150 58
2011-02-24 10:33 51°34.033 2°45.597 2.9 20 7.9 102140 58
2011-02-24 10:34 51°34.135 2°45.68 3.4 23 7.9 102140 58
2011-02-24 10:35 51°34.237 2°45.762 2.8 246 7.9 102140 58
2011-02-24 10:36 51°34.34 2°45.844 2.6 23 7.9 102150 58
2011-02-24 10:37 51°34.441 2°45.926 1.8 23 7.9 102150 57
2011-02-24 10:38 51°34.542 2°46.008 2.7 20 7.8 102150 57
2011-02-24 10:39 51°34.644 2°46.09 2.6 248 7.8 102150 57
2011-02-24 10:40 51°34.746 2°46.172 2.7 21 7.9 102150 56
2011-02-24 10:41 51°34.848 2°46.252 1.9 246 7.9 102150 58
2011-02-24 10:42 51°34.951 2°46.3 3.5 244 7.8 102160 58
2011-02-24 10:43 51°35.049 2°46.325 2.8 20 7.9 102160 56
2011-02-24 10:44 51°35.144 2°46.365 2.6 250 7.8 102160 57
2011-02-24 10:45 51°35.24 2°46.403 2.7 247 7.8 102160 57
2011-02-24 10:46 51°35.335 2°46.46 1.6 253 7.9 102160 58
2011-02-24 10:47 51°35.426 2°46.539 1.6 254 7.9 102160 58
2011-02-24 10:48 51°35.518 2°46.613 1.6 255 7.9 102160 57
2011-02-24 10:49 51°35.61 2°46.687 1.6 256 7.9 102160 57
2011-02-24 10:50 51°35.701 2°46.761 0.8 255 7.9 102160 58
2011-02-24 10:51 51°35.793 2°46.835 0.8 255 7.9 102160 57
2011-02-24 10:52 51°35.885 2°46.907 1 253 7.9 102170 56
2011-02-24 10:53 51°35.976 2°46.982 0.3 253 7.9 102160 57
2011-02-24 10:54 51°36.067 2°47.055 0.4 18 7.9 102160 57
2011-02-24 10:55 51°36.159 2°47.129 0.8 254 7.9 102160 57
2011-02-24 10:56 51°36.251 2°47.201 0.2 253 7.9 102160 57
2011-02-24 10:57 51°36.342 2°47.274 0.4 253 7.9 102160 57
2011-02-24 10:58 51°36.433 2°47.347 1.2 255 7.9 102170 57
2011-02-24 10:59 51°36.523 2°47.42 2.6 257 8 102170 58
2011-02-24 11:00 51°36.613 2°47.495 2 258 8 102170 58
2011-02-24 11:01 51°36.703 2°47.567 1.3 259 8 102170 58
2011-02-24 11:02 51°36.792 2°47.638 1.5 256 8.1 102170 57
2011-02-24 11:03 51°36.881 2°47.704 2.8 252 8.1 102170 56
2011-02-24 11:04 51°36.984 2°47.731 4.3 250 8.1 102170 57
2011-02-24 11:05 51°37.092 2°47.733 5.1 20 8.1 102170 56
2011-02-24 11:06 51°37.187 2°47.65 5.5 21 8 102170 58
2011-02-24 11:07 51°37.281 2°47.554 5.9 24 8 102170 56
2011-02-24 11:08 51°37.376 2°47.458 5.9 20 8 102170 56
2011-02-24 11:09 51°37.462 2°47.341 6.7 22 7.9 102170 57
2011-02-24 11:10 51°37.534 2°47.203 7 20 7.9 102170 57
2011-02-24 11:11 51°37.606 2°47.067 6.6 19 7.9 102180 56
2011-02-24 11:12 51°37.649 2°46.899 7.4 318 7.8 102170 57
2011-02-24 11:13 51°37.642 2°46.713 6.4 326 7.9 102180 56
2011-02-24 11:14 51°37.613 2°46.531 7.3 330 7.9 102180 57
2011-02-24 11:15 51°37.548 2°46.405 6.8 342 7.9 102180 56
2011-02-24 11:16 51°37.456 2°46.337 5.4 348 7.8 102170 56
2011-02-24 11:17 51°37.355 2°46.276 5.9 346 7.8 102180 56
2011-02-24 11:18 51°37.254 2°46.208 5.6 346 7.7 102180 56
2011-02-24 11:19 51°37.154 2°46.141 5.4 348 7.7 102180 56
2011-02-24 11:20 51°37.053 2°46.074 7.3 347 7.7 102190 56
2011-02-24 11:21 51°36.952 2°46.008 7.3 348 7.6 102180 57
2011-02-24 11:22 51°36.85 2°45.944 5.7 347 7.6 102180 56
2011-02-24 11:23 51°36.749 2°45.877 6.4 347 7.6 102180 58
2011-02-24 11:24 51°36.648 2°45.809 6.7 348 7.6 102180 56
2011-02-24 11:25 51°36.546 2°45.742 6.1 347 7.6 102180 58
2011-02-24 11:26 51°36.445 2°45.673 6.4 349 7.7 102180 57
2011-02-24 11:27 51°36.343 2°45.605 7.3 348 7.7 102180 57
2011-02-24 11:28 51°36.241 2°45.537 7.3 348 7.7 102180 58
2011-02-24 11:29 51°36.14 2°45.471 7.5 349 7.7 102180 57
2011-02-24 11:30 51°36.038 2°45.404 8 348 7.7 102180 58
2011-02-24 11:31 51°35.936 2°45.336 7.8 348 7.7 102190 57
2011-02-24 11:32 51°35.834 2°45.269 7.6 350 7.7 102190 57
2011-02-24 11:33 51°35.732 2°45.201 8.1 348 7.7 102190 57
2011-02-24 11:34 51°35.629 2°45.131 6.5 348 7.7 102190 57
2011-02-24 11:35 51°35.527 2°45.062 7.4 350 7.7 102190 58
2011-02-24 11:36 51°35.427 2°44.981 6.1 346 7.7 102190 58
2011-02-24 11:37 51°35.328 2°44.893 7 348 7.7 102190 58
2011-02-24 11:38 51°35.229 2°44.805 8 348 7.7 102190 57
2011-02-24 11:39 51°35.13 2°44.717 6.8 348 7.7 102200 58
2011-02-24 11:40 51°35.031 2°44.63 7 349 7.7 102190 58
2011-02-24 11:41 51°34.932 2°44.542 8.8 350 7.7 102190 57
2011-02-24 11:42 51°34.831 2°44.455 11 350 7.8 102190 57
2011-02-24 11:43 51°34.731 2°44.369 5.5 351 7.8 102190 59
2011-02-24 11:44 51°34.632 2°44.282 7.7 349 7.8 102200 57
2011-02-24 11:45 51°34.532 2°44.197 7 349 7.8 102190 57
2011-02-24 11:46 51°34.431 2°44.113 5.6 349 7.8 102190 59
2011-02-24 11:47 51°34.331 2°44.027 5.9 350 7.8 102200 57
2011-02-24 11:48 51°34.231 2°43.941 6.8 351 7.8 102210 58
2011-02-24 11:49 51°34.129 2°43.856 7.5 351 7.7 102200 58
2011-02-24 11:50 51°34.029 2°43.771 7.5 350 7.8 102200 58
2011-02-24 11:51 51°33.927 2°43.692 6.4 354 7.8 102210 58
2011-02-24 11:52 51°33.819 2°43.646 7.1 356 7.7 102200 58
2011-02-24 11:53 51°33.715 2°43.578 5.9 342 7.7 102200 58
2011-02-24 11:54 51°33.651 2°43.444 7.7 330 7.8 102210 57
2011-02-24 11:55 51°33.63 2°43.284 6.9 322 7.9 102210 58
2011-02-24 11:56 51°33.626 2°43.114 6.6 321 7.9 102210 57
2011-02-24 11:57 51°33.621 2°42.933 7 323 8 102200 58
2011-02-24 11:58 51°33.616 2°42.747 6.4 322 8 102210 58
2011-02-24 11:59 51°33.612 2°42.561 6.6 321 8 102210 57
2011-02-24 12:00 51°33.608 2°42.377 7.6 321 8 102210 57
2011-02-24 12:01 51°33.599 2°42.192 6.7 322 8.1 102200 57
2011-02-24 12:02 51°33.591 2°42.008 9 321 8.1 102200 58
2011-02-24 12:03 51°33.586 2°41.823 6.9 316 8.1 102210 57
2011-02-24 12:04 51°33.627 2°41.692 5.2 246 8.1 102210 57
2011-02-24 12:05 51°33.703 2°41.65 5.8 21 8.1 102210 58
2011-02-24 12:06 51°33.796 2°41.615 6.3 25 8.1 102210 57
2011-02-24 12:07 51°33.897 2°41.622 4.1 248 8.2 102220 57
2011-02-24 12:08 51°33.999 2°41.649 4 248 8.2 102220 56
2011-02-24 12:09 51°34.101 2°41.673 4.2 249 8.3 102220 58
2011-02-24 12:10 51°34.203 2°41.699 5 249 8.3 102230 57
2011-02-24 12:11 51°34.305 2°41.726 4.4 247 8.3 102220 58
2011-02-24 12:12 51°34.408 2°41.75 4 20 8.3 102230 57
2011-02-24 12:13 51°34.511 2°41.776 4.3 247 8.3 102230 57
2011-02-24 12:14 51°34.612 2°41.803 4.4 247 8.3 102230 57
2011-02-24 12:15 51°34.712 2°41.843 3.9 19 8.3 102230 57
2011-02-24 12:16 51°34.811 2°41.889 3.7 247 8.3 102230 57
2011-02-24 12:17 51°34.909 2°41.935 3.4 20 8.3 102230 58
2011-02-24 12:18 51°35.008 2°41.976 4.3 250 8.3 102230 56
2011-02-24 12:19 51°35.107 2°42.018 4.5 249 8.3 102230 56
2011-02-24 12:20 51°35.205 2°42.062 4.3 21 8.3 102230 57
2011-02-24 12:21 51°35.304 2°42.099 2.9 19 8.3 102230 56
2011-02-24 12:22 51°35.403 2°42.143 3.6 249 8.3 102230 57
2011-02-24 12:23 51°35.501 2°42.192 3.8 253 8.3 102230 57
2011-02-24 12:24 51°35.599 2°42.238 3.6 18 8.3 102230 55
2011-02-24 12:25 51°35.698 2°42.281 4.1 251 8.3 102230 57
2011-02-24 12:26 51°35.797 2°42.329 3.6 252 8.3 102230 57
2011-02-24 12:27 51°35.897 2°42.371 3.1 251 8.3 102230 57
2011-02-24 12:28 51°35.997 2°42.415 3.4 251 8.2 102230 56
2011-02-24 12:29 51°36.098 2°42.455 3 251 8.2 102230 56
2011-02-24 12:30 51°36.199 2°42.498 3.2 250 8.2 102230 57
2011-02-24 12:31 51°36.301 2°42.538 3.7 19 8.2 102230 57
2011-02-24 12:32 51°36.402 2°42.58 3 249 8.2 102230 56
2011-02-24 12:33 51°36.502 2°42.622 2.9 250 8.2 102230 57
2011-02-24 12:34 51°36.603 2°42.664 3.1 249 8.2 102230 55
2011-02-24 12:35 51°36.704 2°42.708 2.7 249 8.2 102230 57
2011-02-24 12:36 51°36.804 2°42.754 3.2 19 8.2 102230 56
2011-02-24 12:37 51°36.905 2°42.796 3.3 247 8.2 102220 56
2011-02-24 12:38 51°37.01 2°42.775 4.6 244 8.2 102220 57
2011-02-24 12:39 51°37.116 2°42.744 4.2 21 8.2 102210 57
2011-02-24 12:40 51°37.222 2°42.712 3.7 21 8.2 102210 55
2011-02-24 12:41 51°37.328 2°42.684 4.6 25 8.2 102210 57
2011-02-24 12:42 51°37.434 2°42.655 4.2 245 8.2 102210 56
2011-02-24 12:43 51°37.541 2°42.627 4.6 245 8.2 102220 56
2011-02-24 12:44 51°37.646 2°42.595 4.3 21 8.2 102220 55
2011-02-24 12:45 51°37.751 2°42.565 4.5 26 8.2 102210 57
2011-02-24 12:46 51°37.857 2°42.534 4.3 23 8.2 102210 57
2011-02-24 12:47 51°37.963 2°42.503 4.1 21 8.1 102210 57
2011-02-24 12:48 51°38.07 2°42.471 4.7 21 8.1 102220 55
2011-02-24 12:49 51°38.175 2°42.44 4.6 26 8.2 102220 57
2011-02-24 12:50 51°38.281 2°42.405 4.1 28 8.2 102220 56
2011-02-24 12:51 51°38.387 2°42.371 4.6 25 8.2 102220 55
2011-02-24 12:52 51°38.494 2°42.341 5.1 23 8.2 102220 56
2011-02-24 12:53 51°38.602 2°42.313 4.5 22 8.2 102220 56
2011-02-24 12:54 51°38.711 2°42.277 4.2 20 8.2 102220 57
2011-02-24 12:55 51°38.82 2°42.249 5.1 26 8.2 102220 57
2011-02-24 12:56 51°38.931 2°42.223 4.6 28 8.2 102220 55
2011-02-24 12:57 51°39.04 2°42.191 4.4 20 8.2 102220 55
2011-02-24 12:58 51°39.15 2°42.156 4.3 26 8.2 102220 57
2011-02-24 12:59 51°39.259 2°42.123 4.9 24 8.2 102220 56
2011-02-24 13:00 51°39.369 2°42.089 4.4 23 8.3 102220 56
2011-02-24 13:01 51°39.479 2°42.061 4.1 22 8.3 102220 55
2011-02-24 13:02 51°39.59 2°42.031 4.9 25 8.3 102220 57
2011-02-24 13:03 51°39.7 2°41.995 5.2 20 8.3 102220 57
2011-02-24 13:04 51°39.808 2°41.962 5 26 8.3 102220 57
2011-02-24 13:05 51°39.915 2°41.927 5 18 8.3 102210 56
2011-02-24 13:06 51°40.021 2°41.89 4.4 27 8.3 102220 56
2011-02-24 13:07 51°40.127 2°41.853 5.5 244 8.4 102220 55
2011-02-24 13:08 51°40.231 2°41.796 5.1 20 8.4 102220 56
2011-02-24 13:09 51°40.329 2°41.706 5.8 19 8.4 102220 57
2011-02-24 13:10 51°40.41 2°41.566 6.1 19 8.3 102220 56
2011-02-24 13:11 51°40.494 2°41.428 6.5 20 8.3 102220 55
2011-02-24 13:12 51°40.579 2°41.289 4.8 23 8.2 102210 56
2011-02-24 13:13 51°40.669 2°41.164 5.1 26 8.2 102220 57
2011-02-24 13:14 51°40.77 2°41.103 4.7 246 8.2 102220 55
2011-02-24 13:15 51°40.876 2°41.068 4.7 21 8.2 102220 57
2011-02-24 13:16 51°40.981 2°41.036 4.2 246 8.2 102220 57
2011-02-24 13:17 51°41.086 2°41.007 5.2 23 8.3 102220 56
2011-02-24 13:18 51°41.191 2°40.968 4 245 8.3 102220 57
2011-02-24 13:19 51°41.295 2°40.938 5.1 247 8.3 102220 55
2011-02-24 13:20 51°41.4 2°40.915 3.6 252 8.3 102220 57
2011-02-24 13:21 51°41.498 2°40.952 3 255 8.3 102230 55
2011-02-24 13:22 51°41.595 2°40.998 2.6 256 8.4 102230 57
2011-02-24 13:23 51°41.693 2°41.048 2.6 253 8.4 102230 56
2011-02-24 13:24 51°41.79 2°41.097 3.1 255 8.4 102230 56
2011-02-24 13:25 51°41.886 2°41.149 2.7 256 8.4 102230 55
2011-02-24 13:26 51°41.983 2°41.2 2.9 254 8.4 102230 56
2011-02-24 13:27 51°42.08 2°41.251 2.3 253 8.4 102230 56
2011-02-24 13:28 51°42.163 2°41.336 0.1 265 8.4 102230 56
2011-02-24 13:29 51°42.237 2°41.445 -999 264 8.4 102230 56
2011-02-24 13:30 51°42.312 2°41.558 -999 28 8.5 102230 56
2011-02-24 13:31 51°42.356 2°41.715 -999 39 8.5 102230 56
2011-02-24 13:32 51°42.397 2°41.875 -999 34 8.5 102230 56
2011-02-24 13:33 51°42.442 2°42.033 -999 23 8.6 102230 56
2011-02-24 13:34 51°42.488 2°42.195 -999 23 8.6 102230 56
2011-02-24 13:35 51°42.535 2°42.353 -999 17 8.6 102230 56
2011-02-24 13:36 51°42.58 2°42.515 -999 24 8.7 102240 56
2011-02-24 13:37 51°42.584 2°42.695 0.3 24 8.6 102240 56
2011-02-24 13:38 51°42.572 2°42.861 0.7 29 8.4 102230 56
2011-02-24 13:39 51°42.564 2°43.019 0.1 27 8.3 102230 56
2011-02-24 13:40 51°42.555 2°43.189 0.1 24 8.2 102230 55
2011-02-24 13:41 51°42.544 2°43.376 1.4 24 8.2 102230 55
2011-02-24 13:42 51°42.534 2°43.557 0.9 22 8.1 102230 56
2011-02-24 13:43 51°42.524 2°43.736 1.2 25 8.1 102230 55
2011-02-24 13:44 51°42.515 2°43.913 1.1 22 8 102230 56
2011-02-24 13:45 51°42.504 2°44.089 0.4 25 7.9 102230 56
2011-02-24 13:46 51°42.494 2°44.265 1.1 22 7.9 102230 56
2011-02-24 13:47 51°42.467 2°44.44 3 15 7.9 102230 57
2011-02-24 13:48 51°42.414 2°44.608 3.3 18 7.8 102230 57
2011-02-24 13:49 51°42.361 2°44.766 3.5 18 7.8 102230 57
2011-02-24 13:50 51°42.307 2°44.919 3 20 7.8 102230 57
2011-02-24 13:51 51°42.253 2°45.069 3.5 16 7.8 102230 55
2011-02-24 13:52 51°42.2 2°45.219 3.5 19 7.7 102230 56
2011-02-24 13:53 51°42.148 2°45.369 4 15 7.7 102230 57
2011-02-24 13:54 51°42.067 2°45.493 4.2 7 7.7 102230 56
2011-02-24 13:55 51°41.973 2°45.603 4.5 6 7.7 102230 56
2011-02-24 13:56 51°41.88 2°45.715 5.1 6 7.7 102230 57
2011-02-24 13:57 51°41.788 2°45.827 4.3 7 7.6 102240 56
2011-02-24 13:58 51°41.694 2°45.938 4.3 4 7.6 102230 58
2011-02-24 13:59 51°41.581 2°45.994 5.9 353 7.6 102230 56
2011-02-24 14:00 51°41.46 2°45.975 6.8 348 7.6 102230 56
2011-02-24 14:01 51°41.351 2°45.935 6.3 347 7.6 102230 57
2011-02-24 14:02 51°41.248 2°45.896 5.4 346 7.6 102230 58
2011-02-24 14:03 51°41.148 2°45.85 7.1 345 7.6 102220 57
2011-02-24 14:04 51°41.046 2°45.803 7.1 345 7.6 102230 57
2011-02-24 14:05 51°40.945 2°45.757 4.4 344 7.6 102230 58
2011-02-24 14:06 51°40.843 2°45.713 6.7 344 7.6 102230 58
2011-02-24 14:07 51°40.742 2°45.666 6.7 346 7.6 102230 58
2011-02-24 14:08 51°40.641 2°45.62 5.6 345 7.6 102230 56
2011-02-24 14:09 51°40.54 2°45.575 6.5 346 7.6 102240 57
2011-02-24 14:10 51°40.439 2°45.532 6.7 343 7.6 102240 57
2011-02-24 14:11 51°40.339 2°45.487 7.5 344 7.7 102240 58
2011-02-24 14:12 51°40.239 2°45.44 5.7 345 7.7 102230 57
2011-02-24 14:13 51°40.138 2°45.396 5.1 345 7.7 102240 57
2011-02-24 14:14 51°40.036 2°45.351 5.4 343 7.7 102240 57
2011-02-24 14:15 51°39.931 2°45.304 6.4 342 7.7 102240 57
2011-02-24 14:16 51°39.825 2°45.255 5.6 340 7.7 102230 56
2011-02-24 14:17 51°39.722 2°45.191 6.8 338 7.7 102230 58
2011-02-24 14:18 51°39.617 2°45.127 6.8 339 7.7 102230 58
2011-02-24 14:19 51°39.511 2°45.072 6 341 7.7 102240 58
2011-02-24 14:20 51°39.405 2°45.018 5.6 341 7.7 102230 57
2011-02-24 14:21 51°39.3 2°44.963 6.8 341 7.7 102240 58
2011-02-24 14:22 51°39.195 2°44.908 6.7 341 7.7 102240 56
2011-02-24 14:23 51°39.09 2°44.856 6.1 341 7.7 102240 57
2011-02-24 14:24 51°38.986 2°44.805 5.4 344 7.7 102240 57
2011-02-24 14:25 51°38.88 2°44.756 5.8 345 7.7 102230 56
2011-02-24 14:26 51°38.776 2°44.704 6.5 344 7.7 102230 56
2011-02-24 14:27 51°38.672 2°44.653 5.5 343 7.7 102240 58
2011-02-24 14:28 51°38.567 2°44.602 6.5 345 7.7 102240 57
2011-02-24 14:29 51°38.462 2°44.552 5.9 343 7.7 102240 57
2011-02-24 14:30 51°38.357 2°44.503 5.4 344 7.7 102240 58
2011-02-24 14:31 51°38.252 2°44.456 6.3 343 7.7 102250 57
2011-02-24 14:32 51°38.147 2°44.407 5.4 343 7.7 102240 57
2011-02-24 14:33 51°38.044 2°44.357 5 345 7.6 102240 57
2011-02-24 14:34 51°37.94 2°44.31 6.4 346 7.6 102240 57
2011-02-24 14:35 51°37.837 2°44.263 5.1 345 7.6 102240 57
2011-02-24 14:36 51°37.734 2°44.216 6.2 344 7.6 102240 58
2011-02-24 14:37 51°37.632 2°44.169 5.8 343 7.6 102240 57
2011-02-24 14:38 51°37.529 2°44.122 5.6 345 7.7 102230 57
2011-02-24 14:39 51°37.427 2°44.076 6.8 346 7.7 102230 58
2011-02-24 14:40 51°37.326 2°44.029 7.2 346 7.7 102230 58
2011-02-24 14:41 51°37.224 2°43.986 5.1 345 7.7 102230 57
2011-02-24 14:42 51°37.123 2°43.94 5.8 343 7.7 102230 59
2011-02-24 14:43 51°37.022 2°43.898 6.7 344 7.7 102230 57
2011-02-24 14:44 51°36.922 2°43.853 5.7 343 7.7 102230 58
2011-02-24 14:45 51°36.823 2°43.809 6 342 7.7 102230 57
2011-02-24 14:46 51°36.723 2°43.763 6.5 343 7.7 102240 57
2011-02-24 14:47 51°36.622 2°43.72 5.1 343 7.8 102240 58
2011-02-24 14:48 51°36.523 2°43.675 6 342 7.8 102240 58
2011-02-24 14:49 51°36.424 2°43.632 5.2 345 7.7 102240 57
2011-02-24 14:50 51°36.325 2°43.589 7 346 7.7 102240 58
2011-02-24 14:51 51°36.227 2°43.545 6.4 344 7.8 102240 57
2011-02-24 14:52 51°36.129 2°43.503 4.8 346 7.7 102250 58
2011-02-24 14:53 51°36.031 2°43.459 6.1 343 7.7 102250 57
2011-02-24 14:54 51°35.933 2°43.416 5.6 343 7.7 102250 57
2011-02-24 14:55 51°35.835 2°43.374 5.7 343 7.7 102250 57
2011-02-24 14:56 51°35.738 2°43.332 6 344 7.7 102250 57
2011-02-24 14:57 51°35.641 2°43.288 5.1 343 7.7 102250 58
2011-02-24 14:58 51°35.544 2°43.247 5.1 345 7.7 102250 58
2011-02-24 14:59 51°35.447 2°43.204 5.5 344 7.7 102250 57
2011-02-24 15:00 51°35.35 2°43.161 6.1 343 7.7 102250 58
2011-02-24 15:01 51°35.254 2°43.119 5.3 344 7.7 102250 58
2011-02-24 15:02 51°35.157 2°43.077 6.8 342 7.7 102250 58
2011-02-24 15:03 51°35.059 2°43.035 5.6 343 7.7 102250 57
2011-02-24 15:04 51°34.962 2°42.994 6.2 344 7.7 102250 56
2011-02-24 15:05 51°34.862 2°42.969 5 346 7.7 102250 57
2011-02-24 15:06 51°34.762 2°42.956 5.2 347 7.7 102250 58
2011-02-24 15:07 51°34.654 2°42.946 4.7 348 7.6 102250 58
2011-02-24 15:08 51°34.487 2°43.011 9.2 346 7.6 102250 58
2011-02-24 15:09 51°34.274 2°43.101 7.2 343 7.6 102240 57
2011-02-24 15:10 51°34.057 2°43.208 9.5 345 7.6 102240 57
2011-02-24 15:11 51°33.84 2°43.311 7.4 346 7.6 102240 57
2011-02-24 15:12 51°33.622 2°43.414 7.3 345 7.6 102240 57
2011-02-24 15:13 51°33.405 2°43.515 9.6 345 7.6 102240 58
2011-02-24 15:14 51°33.19 2°43.622 8.7 344 7.6 102250 57
2011-02-24 15:15 51°32.975 2°43.732 9.4 345 7.6 102250 56
2011-02-24 15:16 51°32.76 2°43.843 9.8 345 7.6 102250 58
2011-02-24 15:17 51°32.545 2°43.959 9.5 345 7.6 102250 58
2011-02-24 15:18 51°32.331 2°44.071 7.2 344 7.6 102250 58
2011-02-24 15:19 51°32.118 2°44.18 7.3 345 7.5 102250 58
2011-02-24 15:20 51°31.904 2°44.288 9 345 7.5 102250 56
2011-02-24 15:21 51°31.692 2°44.396 8.7 346 7.5 102250 58
2011-02-24 15:22 51°31.479 2°44.504 7.5 345 7.5 102250 58
2011-02-24 15:23 51°31.266 2°44.612 8.4 347 7.5 102260 57
2011-02-24 15:24 51°31.053 2°44.719 8.3 346 7.5 102260 58
2011-02-24 15:25 51°30.841 2°44.829 7.7 347 7.5 102250 58
2011-02-24 15:26 51°30.629 2°44.936 9.9 347 7.5 102250 57
2011-02-24 15:27 51°30.417 2°45.047 9.7 346 7.5 102250 56
2011-02-24 15:28 51°30.206 2°45.158 9.4 348 7.5 102250 57
2011-02-24 15:29 51°29.996 2°45.269 7.7 348 7.5 102260 58
2011-02-24 15:30 51°29.786 2°45.382 7.7 348 7.5 102250 58
2011-02-24 15:31 51°29.577 2°45.497 9.5 348 7.5 102260 58
2011-02-24 15:32 51°29.366 2°45.613 8.8 346 7.5 102260 58
2011-02-24 15:33 51°29.157 2°45.732 7.4 346 7.4 102250 58
2011-02-24 15:34 51°28.948 2°45.854 9.6 347 7.4 102260 57
2011-02-24 15:35 51°28.738 2°45.974 7.2 344 7.4 102260 56
2011-02-24 15:36 51°28.528 2°46.094 8.2 346 7.4 102260 55
2011-02-24 15:37 51°28.32 2°46.214 7.6 346 7.4 102270 58
2011-02-24 15:38 51°28.111 2°46.335 6.8 343 7.4 102270 58
2011-02-24 15:39 51°27.903 2°46.457 7.2 344 7.4 102260 57
2011-02-24 15:40 51°27.695 2°46.571 8.1 346 7.4 102270 56
2011-02-24 15:41 51°27.492 2°46.68 7.6 346 7.3 102270 57
2011-02-24 15:42 51°27.288 2°46.79 7.1 348 7.3 102270 58
2011-02-24 15:43 51°27.086 2°46.902 8.1 346 7.3 102270 57
2011-02-24 15:44 51°26.883 2°47.013 7.5 346 7.3 102270 56
2011-02-24 15:45 51°26.68 2°47.127 7.3 346 7.3 102280 57
2011-02-24 15:46 51°26.477 2°47.24 8.1 345 7.2 102280 58
2011-02-24 15:47 51°26.273 2°47.353 8.1 344 7.3 102280 58
2011-02-24 15:48 51°26.067 2°47.465 8.7 345 7.2 102280 56
2011-02-24 15:49 51°25.862 2°47.581 7.7 345 7.2 102280 56
2011-02-24 15:50 51°25.656 2°47.697 7.2 345 7.2 102280 56
2011-02-24 15:51 51°25.452 2°47.811 7.3 345 7.2 102280 57
2011-02-24 15:52 51°25.253 2°47.928 6.7 345 7.2 102290 57
2011-02-24 15:53 51°25.055 2°48.046 8 346 7.1 102290 56
2011-02-24 15:54 51°24.857 2°48.165 6.4 345 7.1 102290 57
2011-02-24 15:55 51°24.659 2°48.283 6.6 345 7.1 102290 58
2011-02-24 15:56 51°24.46 2°48.404 6.9 346 7.1 102290 56
2011-02-24 15:57 51°24.26 2°48.525 6.5 344 7.1 102300 58
2011-02-24 15:58 51°24.06 2°48.647 7.6 345 7.1 102300 57
2011-02-24 15:59 51°23.859 2°48.765 7.1 344 7.1 102300 56
2011-02-24 16:00 51°23.658 2°48.882 7.3 343 7.1 102300 56
2011-02-24 16:01 51°23.457 2°49.001 6.9 344 7.1 102300 58
2011-02-24 16:02 51°23.258 2°49.124 7.1 345 7.1 102300 58
2011-02-24 16:03 51°23.056 2°49.245 6.1 344 7.1 102310 57
2011-02-24 16:04 51°22.855 2°49.366 6.6 345 7.1 102310 56
2011-02-24 16:05 51°22.654 2°49.49 7.8 346 7.1 102310 57
2011-02-24 16:06 51°22.451 2°49.615 8.1 346 7.2 102310 58
2011-02-24 16:07 51°22.253 2°49.741 7.4 348 7.2 102310 56
2011-02-24 16:08 51°22.057 2°49.864 5.9 347 7.2 102320 55
2011-02-24 16:09 51°21.864 2°49.988 6.1 346 7.2 102320 56
2011-02-24 16:10 51°21.67 2°50.106 5.9 347 7.2 102320 58
2011-02-24 16:11 51°21.475 2°50.223 5.8 350 7.2 102320 58
2011-02-24 16:12 51°21.279 2°50.336 4.4 348 7.2 102330 58
2011-02-24 16:13 51°21.081 2°50.449 6.2 352 7.3 102330 58
2011-02-24 16:14 51°20.883 2°50.565 6.2 352 7.3 102330 58
2011-02-24 16:15 51°20.686 2°50.678 6.6 353 7.3 102330 58
2011-02-24 16:16 51°20.488 2°50.792 6.4 351 7.3 102340 57
2011-02-24 16:17 51°20.289 2°50.907 6.7 352 7.3 102340 57
2011-02-24 16:18 51°20.092 2°51.02 6.1 350 7.3 102340 57
2011-02-24 16:19 51°19.895 2°51.134 6.5 352 7.3 102340 58
2011-02-24 16:20 51°19.698 2°51.231 6.5 350 7.3 102340 57
2011-02-24 16:21 51°19.5 2°51.318 6.2 350 7.4 102340 58
2011-02-24 16:22 51°19.303 2°51.433 6.2 351 7.3 102340 58
2011-02-24 16:23 51°19.107 2°51.548 6.1 350 7.3 102340 57
2011-02-24 16:24 51°18.908 2°51.658 6.9 349 7.3 102340 55
2011-02-24 16:25 51°18.706 2°51.764 7.8 350 7.3 102340 56
2011-02-24 16:26 51°18.501 2°51.852 6 348 7.4 102340 56
2011-02-24 16:27 51°18.297 2°51.921 6 347 7.3 102340 56
2011-02-24 16:28 51°18.092 2°52.001 7.2 344 7.3 102340 56
2011-02-24 16:29 51°17.888 2°52.074 6.7 342 7.3 102340 56
2011-02-24 16:30 51°17.683 2°52.147 6.6 342 7.1 102340 56
2011-02-24 16:31 51°17.481 2°52.229 6.9 346 7.1 102340 57
2011-02-24 16:32 51°17.284 2°52.347 6.4 345 7.3 102340 56
2011-02-24 16:33 51°17.088 2°52.482 6.9 342 7.3 102340 56
2011-02-24 16:34 51°16.894 2°52.628 6.5 344 7.3 102340 56
2011-02-24 16:35 51°16.699 2°52.774 7.5 346 7.4 102340 56
2011-02-24 16:36 51°16.504 2°52.927 7.2 345 7.4 102340 57
2011-02-24 16:37 51°16.31 2°53.083 7 346 7.4 102340 58
2011-02-24 16:38 51°16.117 2°53.238 7.5 344 7.4 102340 57
2011-02-24 16:39 51°15.926 2°53.402 7.1 346 7.4 102340 58
2011-02-24 16:40 51°15.736 2°53.572 6 348 7.4 102340 56
2011-02-24 16:41 51°15.586 2°53.752 5 354 7.5 102340 56
2011-02-24 16:42 51°15.469 2°53.894 4.6 357 7.5 102350 58
2011-02-24 16:43 51°15.362 2°54.029 4.2 357 7.5 102350 57
2011-02-24 16:44 51°15.252 2°54.161 4.5 352 7.4 102360 56
2011-02-24 16:45 51°15.11 2°54.323 6.5 347 7.4 102350 57
2011-02-24 16:46 51°14.937 2°54.524 6.2 344 7.4 102350 57
2011-02-24 16:47 51°14.77 2°54.757 6.5 344 7.3 102350 56
2011-02-24 16:48 51°14.6 2°54.978 5.9 344 7.3 102350 55
2011-02-24 16:49 51°14.421 2°55.155 6.6 348 7.4 102350 56
2011-02-24 16:50 51°14.249 2°55.311 6 350 7.6 102360 58
2011-02-24 16:51 51°14.081 2°55.445 3.2 339 7.9 102360 56
2011-02-24 16:52 51°13.95 2°55.539 0.4 359 8.2 102360 58
2011-02-24 16:53 51°13.835 2°55.622 3.5 354 8.4 102370 59
2011-02-24 16:54 51°13.75 2°55.716 0.1 356 8.6 102370 58
2011-02-24 16:55 51°13.703 2°55.814 1.1 18 8.7 102370 57
2011-02-24 16:56 51°13.677 2°55.897 -999 42 8.8 102380 56
2011-02-24 16:57 51°13.663 2°55.953 1.1 27 8.9 102380 57
2011-02-24 17:01 51°13.661 2°55.959 1.3 57 9.1 102380 57